Time,TemperatureF,DewpointF,PressureIn,WindDirection,WindDirectionDegrees,WindSpeedMPH,WindSpeedGustMPH,Humidity,HourlyPrecipIn,Conditions,Clouds,dailyrainin,SolarRadiationWatts/m^2,SoftwareType,DateUTC
2013-06-17 00:02:00,63.0,60.0,-100.00,SW,230,3.0,8.0,91,0.00,,,0.18,0.000000,,2013-06-17 04:02:00,
2013-06-17 00:12:00,63.0,60.0,-100.00,SW,230,3.0,8.0,91,0.00,,,0.18,0.000000,,2013-06-17 04:12:00,
2013-06-17 00:23:00,63.0,60.0,-100.00,SW,230,3.0,8.0,91,0.00,,,0.18,0.000000,,2013-06-17 04:23:00,
2013-06-17 00:53:00,64.0,61.0,-100.00,SW,222,5.0,11.0,91,0.00,,,0.18,0.000000,,2013-06-17 04:53:00,
2013-06-17 01:02:00,64.0,61.0,-100.00,SW,222,5.0,11.0,91,0.00,,,0.18,0.000000,,2013-06-17 05:02:00,
2013-06-17 01:12:00,64.0,61.0,-100.00,SW,222,5.0,11.0,91,0.00,,,0.18,0.000000,,2013-06-17 05:12:00,
2013-06-17 01:22:00,64.0,61.0,-100.00,SW,222,5.0,11.0,91,0.00,,,0.18,0.000000,,2013-06-17 05:22:00,
2013-06-17 01:53:00,64.0,61.0,-100.00,SW,215,5.0,10.0,90,0.00,,,0.18,0.000000,,2013-06-17 05:53:00,
2013-06-17 02:02:00,64.0,61.0,-100.00,SW,215,5.0,10.0,90,0.00,,,0.18,0.000000,,2013-06-17 06:02:00,
2013-06-17 02:12:00,64.0,61.0,-100.00,SW,215,5.0,10.0,90,0.00,,,0.18,0.000000,,2013-06-17 06:12:00,
2013-06-17 02:22:00,64.0,61.0,-100.00,SW,215,5.0,10.0,90,0.00,,,0.18,0.000000,,2013-06-17 06:22:00,
2013-06-17 02:53:00,64.0,62.0,-100.00,West,281,1.0,12.0,92,0.00,,,0.18,0.000000,,2013-06-17 06:53:00,
2013-06-17 03:02:00,64.0,62.0,-100.00,West,281,1.0,12.0,92,0.00,,,0.18,0.000000,,2013-06-17 07:02:00,
2013-06-17 03:12:00,64.0,62.0,-100.00,West,281,1.0,12.0,92,0.00,,,0.18,0.000000,,2013-06-17 07:12:00,
2013-06-17 03:22:00,64.0,62.0,-100.00,West,281,1.0,12.0,92,0.00,,,0.18,0.000000,,2013-06-17 07:22:00,
2013-06-17 03:53:00,62.0,61.0,-100.00,SSW,203,2.0,4.0,97,0.00,,,0.18,0.000000,,2013-06-17 07:53:00,
2013-06-17 04:02:00,62.0,61.0,-100.00,SSW,203,2.0,4.0,97,0.00,,,0.18,0.000000,,2013-06-17 08:02:00,
2013-06-17 04:12:00,62.0,61.0,-100.00,SSW,203,2.0,4.0,97,0.00,,,0.18,0.000000,,2013-06-17 08:12:00,
2013-06-17 04:22:00,62.0,61.0,-100.00,SSW,203,2.0,4.0,97,0.00,,,0.18,0.000000,,2013-06-17 08:22:00,
2013-06-17 04:53:00,62.0,61.0,-100.00,SW,218,4.0,7.0,96,0.00,,,0.18,0.000000,,2013-06-17 08:53:00,
2013-06-17 05:02:00,62.0,61.0,-100.00,SW,218,4.0,7.0,96,0.00,,,0.18,0.000000,,2013-06-17 09:02:00,
2013-06-17 05:12:00,62.0,61.0,-100.00,SW,218,4.0,7.0,96,0.00,,,0.18,0.000000,,2013-06-17 09:12:00,
2013-06-17 05:22:00,62.0,61.0,-100.00,SW,218,4.0,7.0,96,0.00,,,0.18,0.000000,,2013-06-17 09:22:00,
2013-06-17 05:53:00,62.0,61.0,-100.00,SSW,213,5.0,9.0,95,0.00,,,0.18,0.000000,,2013-06-17 09:53:00,
2013-06-17 06:02:00,62.0,61.0,-100.00,SSW,213,5.0,9.0,95,0.00,,,0.18,0.000000,,2013-06-17 10:02:00,
2013-06-17 06:12:00,62.0,61.0,-100.00,SSW,213,5.0,9.0,95,0.00,,,0.18,0.000000,,2013-06-17 10:12:00,
2013-06-17 06:22:00,62.0,61.0,-100.00,SSW,213,5.0,9.0,95,0.00,,,0.18,0.000000,,2013-06-17 10:22:00,
2013-06-17 06:54:00,64.0,62.0,-100.00,SW,223,5.0,9.0,92,0.00,,,0.18,24.000000,,2013-06-17 10:54:00,
2013-06-17 07:02:00,64.0,62.0,-100.00,SW,223,5.0,9.0,92,0.00,,,0.18,24.000000,,2013-06-17 11:02:00,
2013-06-17 07:12:00,64.0,62.0,-100.00,SW,223,5.0,9.0,92,0.00,,,0.18,24.000000,,2013-06-17 11:12:00,
2013-06-17 07:23:00,64.0,62.0,-100.00,SW,223,5.0,9.0,92,0.00,,,0.18,24.000000,,2013-06-17 11:23:00,
2013-06-17 07:53:00,66.0,62.0,-100.00,WSW,241,7.0,12.0,86,0.00,,,0.18,126.000000,,2013-06-17 11:53:00,
2013-06-17 08:02:00,66.0,62.0,-100.00,WSW,241,7.0,12.0,86,0.00,,,0.18,126.000000,,2013-06-17 12:02:00,
2013-06-17 08:12:00,66.0,62.0,-100.00,WSW,241,7.0,12.0,86,0.00,,,0.18,126.000000,,2013-06-17 12:12:00,
2013-06-17 08:23:00,66.0,62.0,-100.00,WSW,241,7.0,12.0,86,0.00,,,0.18,126.000000,,2013-06-17 12:23:00,
2013-06-17 08:53:00,70.0,62.0,-100.00,SW,236,7.0,12.0,77,0.00,,,0.18,282.000000,,2013-06-17 12:53:00,
2013-06-17 09:02:00,70.0,62.0,-100.00,SW,236,7.0,12.0,77,0.00,,,0.18,282.000000,,2013-06-17 13:02:00,
2013-06-17 09:12:00,70.0,62.0,-100.00,SW,236,7.0,12.0,77,0.00,,,0.18,282.000000,,2013-06-17 13:12:00,
2013-06-17 09:22:00,70.0,62.0,-100.00,SW,236,7.0,12.0,77,0.00,,,0.18,282.000000,,2013-06-17 13:22:00,
2013-06-17 09:53:00,72.0,60.0,-100.00,SW,225,7.0,14.0,67,0.00,,,0.16,443.000000,,2013-06-17 13:53:00,
2013-06-17 10:02:00,72.0,60.0,-100.00,SW,225,7.0,14.0,67,0.00,,,0.16,443.000000,,2013-06-17 14:02:00,
2013-06-17 10:12:00,72.0,60.0,-100.00,SW,225,7.0,14.0,67,0.00,,,0.16,443.000000,,2013-06-17 14:12:00,
2013-06-17 10:22:00,72.0,60.0,-100.00,SW,225,7.0,14.0,67,0.00,,,0.16,443.000000,,2013-06-17 14:22:00,
2013-06-17 10:54:00,72.0,62.0,-100.00,WSW,241,7.0,17.0,70,0.00,,,0.07,531.000000,,2013-06-17 14:54:00,
2013-06-17 11:02:00,72.0,62.0,-100.00,WSW,241,7.0,17.0,70,0.00,,,0.07,531.000000,,2013-06-17 15:02:00,
2013-06-17 11:12:00,72.0,62.0,-100.00,WSW,241,7.0,17.0,70,0.00,,,0.07,531.000000,,2013-06-17 15:12:00,
2013-06-17 11:22:00,72.0,62.0,-100.00,WSW,241,7.0,17.0,70,0.00,,,0.07,531.000000,,2013-06-17 15:22:00,
2013-06-17 11:53:00,73.0,61.0,-100.00,SW,233,10.0,16.0,67,0.00,,,0.04,541.000000,,2013-06-17 15:53:00,
2013-06-17 12:02:00,73.0,61.0,-100.00,SW,233,10.0,16.0,67,0.00,,,0.04,541.000000,,2013-06-17 16:02:00,
2013-06-17 12:12:00,73.0,61.0,-100.00,SW,233,10.0,16.0,67,0.00,,,0.04,541.000000,,2013-06-17 16:12:00,
2013-06-17 12:22:00,73.0,61.0,-100.00,SW,233,10.0,16.0,67,0.00,,,0.04,541.000000,,2013-06-17 16:22:00,
2013-06-17 12:54:00,76.0,62.0,-100.00,WSW,239,8.0,17.0,63,0.00,,,0.01,812.000000,,2013-06-17 16:54:00,
2013-06-17 13:02:00,76.0,62.0,-100.00,WSW,239,8.0,17.0,63,0.00,,,0.01,812.000000,,2013-06-17 17:02:00,
2013-06-17 13:12:00,76.0,62.0,-100.00,WSW,239,8.0,17.0,63,0.00,,,0.01,812.000000,,2013-06-17 17:12:00,
2013-06-17 13:22:00,76.0,62.0,-100.00,WSW,239,8.0,17.0,63,0.00,,,0.01,812.000000,,2013-06-17 17:22:00,
2013-06-17 13:52:00,77.0,62.0,-100.00,SW,232,9.0,18.0,59,0.00,,,0.00,794.000000,,2013-06-17 17:52:00,
2013-06-17 14:02:00,77.0,62.0,-100.00,SW,232,9.0,18.0,59,0.00,,,0.00,794.000000,,2013-06-17 18:02:00,
2013-06-17 14:12:00,77.0,62.0,-100.00,SW,232,9.0,18.0,59,0.00,,,0.00,794.000000,,2013-06-17 18:12:00,
2013-06-17 14:23:00,77.0,62.0,-100.00,SW,232,9.0,18.0,59,0.00,,,0.00,794.000000,,2013-06-17 18:23:00,
2013-06-17 14:53:00,76.0,61.0,-100.00,SW,235,7.0,14.0,60,0.00,,,0.00,314.000000,,2013-06-17 18:53:00,
2013-06-17 15:02:00,76.0,61.0,-100.00,SW,235,7.0,14.0,60,0.00,,,0.00,314.000000,,2013-06-17 19:02:00,
2013-06-17 15:12:00,76.0,61.0,-100.00,SW,235,7.0,14.0,60,0.00,,,0.00,314.000000,,2013-06-17 19:12:00,
2013-06-17 15:22:00,76.0,61.0,-100.00,SW,235,7.0,14.0,60,0.00,,,0.00,314.000000,,2013-06-17 19:22:00,
2013-06-17 15:54:00,78.0,61.0,-100.00,WSW,255,6.0,15.0,56,0.00,,,0.00,575.000000,,2013-06-17 19:54:00,
2013-06-17 16:02:00,78.0,61.0,-100.00,WSW,255,6.0,15.0,56,0.00,,,0.00,575.000000,,2013-06-17 20:02:00,
2013-06-17 16:11:00,78.0,61.0,-100.00,WSW,255,6.0,15.0,56,0.00,,,0.00,575.000000,,2013-06-17 20:11:00,
2013-06-17 16:22:00,78.0,61.0,-100.00,WSW,255,6.0,15.0,56,0.00,,,0.00,575.000000,,2013-06-17 20:22:00,
2013-06-17 16:52:00,79.0,59.0,-100.00,WSW,253,8.0,18.0,50,0.00,,,0.00,675.000000,,2013-06-17 20:52:00,
2013-06-17 17:02:00,79.0,59.0,-100.00,WSW,253,8.0,18.0,50,0.00,,,0.00,675.000000,,2013-06-17 21:02:00,
2013-06-17 17:12:00,79.0,59.0,-100.00,WSW,253,8.0,18.0,50,0.00,,,0.00,675.000000,,2013-06-17 21:12:00,
2013-06-17 17:22:00,79.0,59.0,-100.00,WSW,253,8.0,18.0,50,0.00,,,0.00,675.000000,,2013-06-17 21:22:00,
2013-06-17 18:54:00,77.0,59.0,-100.00,SW,231,5.0,11.0,53,-99.99,,,0.00,323.000000,,2013-06-17 22:54:00,
2013-06-17 19:02:00,77.0,59.0,-100.00,SW,231,5.0,11.0,53,-99.99,,,0.00,323.000000,,2013-06-17 23:02:00,
2013-06-17 19:11:00,77.0,59.0,-100.00,SW,231,5.0,11.0,53,-99.99,,,0.00,323.000000,,2013-06-17 23:11:00,
2013-06-17 19:22:00,77.0,59.0,-100.00,SW,231,5.0,11.0,53,-99.99,,,0.00,323.000000,,2013-06-17 23:22:00,
2013-06-17 19:53:00,75.0,61.0,-100.00,WSW,250,2.0,8.0,61,0.00,,,0.00,144.000000,,2013-06-17 23:53:00,
2013-06-17 20:02:00,75.0,61.0,-100.00,WSW,250,2.0,8.0,61,0.00,,,0.00,144.000000,,2013-06-18 00:02:00,
2013-06-17 20:12:00,75.0,61.0,-100.00,WSW,250,2.0,8.0,61,0.00,,,0.00,144.000000,,2013-06-18 00:12:00,
2013-06-17 20:22:00,75.0,61.0,-100.00,WSW,250,2.0,8.0,61,0.00,,,0.00,144.000000,,2013-06-18 00:22:00,
2013-06-17 20:52:00,70.0,58.0,-100.00,NNE,18,4.0,11.0,65,0.00,,,0.00,87.000000,,2013-06-18 00:52:00,
2013-06-17 21:01:00,70.0,58.0,-100.00,NNE,18,4.0,11.0,65,0.00,,,0.00,87.000000,,2013-06-18 01:01:00,
2013-06-17 21:12:00,70.0,58.0,-100.00,NNE,18,4.0,11.0,65,0.00,,,0.00,87.000000,,2013-06-18 01:12:00,
2013-06-17 21:23:00,70.0,58.0,-100.00,NNE,18,4.0,11.0,65,0.00,,,0.00,87.000000,,2013-06-18 01:23:00,
2013-06-17 21:53:00,67.0,58.0,-100.00,NE,34,2.0,7.0,73,0.00,,,0.00,5.000000,,2013-06-18 01:53:00,
2013-06-17 22:02:00,67.0,58.0,-100.00,NE,34,2.0,7.0,73,0.00,,,0.00,5.000000,,2013-06-18 02:02:00,
2013-06-17 22:12:00,67.0,58.0,-100.00,NE,34,2.0,7.0,73,0.00,,,0.00,5.000000,,2013-06-18 02:12:00,
2013-06-17 22:22:00,67.0,58.0,-100.00,NE,34,2.0,7.0,73,0.00,,,0.00,5.000000,,2013-06-18 02:22:00,
2013-06-17 22:53:00,66.0,56.0,-100.00,NE,44,3.0,6.0,69,0.00,,,0.00,0.000000,,2013-06-18 02:53:00,
2013-06-17 23:02:00,66.0,56.0,-100.00,NE,44,3.0,6.0,69,0.00,,,0.00,0.000000,,2013-06-18 03:02:00,
2013-06-17 23:12:00,66.0,56.0,-100.00,NE,44,3.0,6.0,69,0.00,,,0.00,0.000000,,2013-06-18 03:12:00,
2013-06-17 23:23:00,66.0,56.0,-100.00,NE,44,3.0,6.0,69,0.00,,,0.00,0.000000,,2013-06-18 03:23:00,
2013-06-17 23:53:00,64.0,57.0,-100.00,NE,49,2.0,4.0,78,0.00,,,0.00,0.000000,,2013-06-18 03:53:00,